sat.trackr.live / text

‹ back to catalog

2024-174D

NORAD 61241 · 2024-174D

PAYLOAD ACTIVE UNKNOWN

§ Identity

Operator
Country
PRC
Launch date
2024-09-24
Launch site
JSC
Launch vehicle
Mass (kg)
RCS (m²)

External: N2YO · Heavens-Above · Gunter

§ Orbital elements

Epoch: 2026-09-22T23:44:51.088416Z

Period
94.06 min
Inclination
97.4390°
Eccentricity
0.0009816
Mean motion
15.30876657 rev/d
Perigee alt
466.5 km
Apogee alt
479.9 km
Semi-major
6,851.3 km
B*
1.8786e-4
RAAN
277.5967°
Arg perigee
237.3015°
Mean anomaly
122.7280°
Rev number
11,087

§ Raw data

2024-174D1 61241U 24174D   26265.98948019  .00005534  00000+0  18786-3 0  99902 61241  97.4390 277.5967 0009816 237.3015 122.7280 15.30876657110873

JSON: /api/v1/satellites/61241 · /tle

For live sub-satellite position, see the globe view (requires WebGL).

§ Visibility from observer

Set your observer location to see the next 7 days of passes ≥ 10°. The values pass through the URL so the page stays shareable.

No JS? Fill the form by hand. The geolocation button needs JavaScript.